< < Back
Terminal Aerodrome Forecast


Current Version              Previous Versions:   1  2  3  4  5  6  7  8  9  

Terminal Aerodrome Forecast

661
FTAK31 PAJN 242300
TAFAHN
TAF
PAHN 242326Z 2500/2524 12006KT P6SM SCT050
     FM250600 30003KT P6SM SCT100
     FM252000 15007KT P6SM SKC
      AMD LTD TO CLD VIS AND WIND=

Latest METAR

848
SAUS70 KWBC 250900
MTRAHN
METAR KAHN 250851Z AUTO 17005KT 9SM CLR 16/14 A2987 RMK AO2 SLP110
T01610144 58015


USA.gov is the U.S. government's official web portal to all federal, state and local government web resources and services.